Date String (YYYY-MM-DD hh:mm:ss) UTC,Instrument flags,Ambient pressure (hPa),Sample flow (lpm),Bypass flow (lpm),Sample temperature (°C),Ambient temperature (°C),ASC tube jacket temperature (°C),LED temperature (°C),Box temperature (°C),Sample RH (%),Span deviation,Mass concentration (μg/m³),Mass concentration (μg/m³),Mass concentration (μg/m³)
DateTimeUTC,F1_M11,P_M11,Q1_M11,Q2_M11,T1_M11,T2_M11,T3_M11,T4_M11,T5_M11,U1_M11,ZSPAN_M11,X0_M11,X2_M11,X1_M11
2022-04-07 13:00:00,,0833.6,5.01,0.00,21.6,20.9,00.0,30.7,23.1,07.3,0000.0,0003.31,0000.89,0000.46
2022-04-07 13:01:00,,0833.6,5.00,0.00,21.5,20.8,00.0,30.6,23.0,07.2,0000.0,0003.37,0000.96,0000.46
2022-04-07 13:02:00,,0833.6,4.99,0.00,21.5,20.6,00.0,30.6,22.9,07.1,0000.0,0003.43,0000.98,0000.47
2022-04-07 13:03:00,,0833.6,4.99,0.00,21.4,20.5,00.0,30.6,22.8,07.1,0000.0,0003.36,0000.99,0000.46
2022-04-07 13:04:00,,0833.6,5.00,0.00,21.3,20.4,00.0,30.5,22.8,07.1,0000.0,0002.43,0001.01,0000.47
2022-04-07 13:05:00,,0833.6,5.01,0.00,21.4,21.2,00.0,30.6,23.0,07.2,0000.0,0002.51,0001.01,0000.46
2022-04-07 13:06:00,,0833.6,5.01,0.00,21.6,22.3,00.0,30.6,23.4,07.1,0000.0,0002.61,0001.04,0000.47
2022-04-07 13:07:00,,0833.6,4.99,0.00,21.7,23.0,00.0,30.6,23.7,07.0,0000.0,0003.29,0001.03,0000.47
2022-04-07 13:08:00,,0833.6,4.99,0.00,21.8,22.7,00.0,30.7,23.7,07.0,0000.0,0003.23,0001.02,0000.47
2022-04-07 13:09:00,,0833.6,5.00,0.00,21.8,22.3,00.0,30.7,23.6,07.0,0000.0,0003.24,0001.03,0000.48
2022-04-07 13:10:00,,0833.6,5.00,0.00,21.8,22.0,00.0,30.7,23.4,07.1,0000.0,0003.35,0001.04,0000.48
2022-04-07 13:11:00,,0833.6,5.01,0.00,21.7,21.7,00.0,30.7,23.3,07.1,0000.0,0003.45,0001.06,0000.48
2022-04-07 13:12:00,,0833.6,5.00,0.00,21.7,21.4,00.0,30.7,23.2,07.2,0000.0,0004.26,0001.05,0000.48
2022-04-07 13:13:00,,0833.6,5.01,0.00,21.6,21.1,00.0,30.7,23.2,07.2,0000.0,0004.35,0001.01,0000.47
2022-04-07 13:14:00,,0833.7,4.99,0.00,21.6,20.9,00.0,30.6,23.1,07.3,0000.0,0004.22,0001.02,0000.48
2022-04-07 13:15:00,,0833.7,4.99,0.00,21.5,20.7,00.0,30.6,23.0,07.3,0000.0,0004.22,0001.03,0000.48
2022-04-07 13:16:00,,0833.7,5.00,0.00,21.5,20.6,00.0,30.6,22.9,07.3,0000.0,0004.29,0001.03,0000.48
2022-04-07 13:17:00,,0833.7,5.02,0.00,21.4,20.5,00.0,30.6,22.8,07.3,0000.0,0004.20,0001.02,0000.48
2022-04-07 13:18:00,,0833.7,5.00,0.00,21.3,20.3,00.0,30.5,22.8,07.3,0000.0,0003.56,0001.05,0000.49
2022-04-07 13:19:00,,0833.7,5.00,0.00,21.3,20.3,00.0,30.5,22.7,07.3,0000.0,0003.62,0001.04,0000.49
2022-04-07 13:20:00,,0833.7,5.01,0.00,21.2,20.7,00.0,30.5,22.8,07.3,0000.0,0003.69,0001.05,0000.49
2022-04-07 13:21:00,,0833.7,5.01,0.00,21.4,22.0,00.0,30.5,23.2,07.3,0000.0,0003.71,0001.04,0000.48
2022-04-07 13:22:00,,0833.7,5.00,0.00,21.6,23.1,00.0,30.6,23.6,07.2,0000.0,0003.50,0000.98,0000.47
2022-04-07 13:23:00,,0833.7,5.00,0.00,21.8,23.1,00.0,30.6,23.7,07.2,0000.0,0002.45,0000.86,0000.45
2022-04-07 13:24:00,,0833.8,4.99,0.00,21.7,22.6,00.0,30.6,23.5,07.2,0000.0,0002.18,0000.87,0000.46
2022-04-07 13:25:00,,0833.7,5.01,0.00,21.7,22.1,00.0,30.6,23.3,07.3,0000.0,0002.31,0000.88,0000.46
2022-04-07 13:26:00,,0833.8,4.99,0.00,21.6,21.7,00.0,30.6,23.2,07.3,0000.0,0002.32,0000.89,0000.45
2022-04-07 13:27:00,,0833.8,4.99,0.00,21.6,21.4,00.0,30.6,23.1,07.4,0000.0,0002.94,0000.91,0000.45
2022-04-07 13:28:00,,0833.8,5.01,0.00,21.5,21.1,00.0,30.6,23.0,07.4,0000.0,0003.64,0000.92,0000.45
2022-04-07 13:29:00,,0833.7,5.00,0.00,21.5,20.9,00.0,30.6,22.9,07.4,0000.0,0004.12,0000.90,0000.44
2022-04-07 13:30:00,,0833.8,5.01,0.00,21.4,20.7,00.0,30.5,22.9,07.5,0000.0,0004.15,0000.92,0000.44
2022-04-07 13:31:00,,0833.8,5.00,0.00,21.4,20.6,00.0,30.5,22.8,07.5,0000.0,0004.14,0000.93,0000.43
2022-04-07 13:32:00,,0833.8,5.00,0.00,21.3,20.4,00.0,30.5,22.8,07.4,0000.0,0004.14,0000.98,0000.45
2022-04-07 13:33:00,,0833.9,5.00,0.00,21.3,20.3,00.0,30.5,22.7,07.5,0000.0,0004.36,0001.10,0000.46
2022-04-07 13:34:00,,0834.0,5.00,0.00,21.2,20.3,00.0,30.4,22.7,07.5,0000.0,0004.75,0001.15,0000.47
2022-04-07 13:35:00,,0834.0,5.00,0.00,21.2,20.3,00.0,30.4,22.6,07.5,0000.0,0005.25,0001.14,0000.46
2022-04-07 13:36:00,,0834.0,5.00,0.00,21.3,21.4,00.0,30.4,23.0,07.5,0000.0,0006.65,0001.18,0000.46
2022-04-07 13:37:00,,0834.0,4.99,0.00,21.5,22.8,00.0,30.5,23.4,07.4,0000.0,0007.21,0001.21,0000.48
2022-04-07 13:38:00,,0834.0,5.00,0.00,21.7,23.3,00.0,30.5,23.7,07.3,0000.0,0007.10,0001.24,0000.48
2022-04-07 13:39:00,,0834.0,5.00,0.00,21.7,22.9,00.0,30.5,23.6,07.3,0000.0,0006.98,0001.31,0000.48
2022-04-07 13:40:00,,0834.0,5.01,0.00,21.6,22.3,00.0,30.6,23.4,07.4,0000.0,0006.52,0001.32,0000.49
2022-04-07 13:41:00,,0834.0,5.00,0.00,21.6,21.9,00.0,30.6,23.2,07.4,0000.0,0006.48,0001.31,0000.49
2022-04-07 13:42:00,,0833.9,4.99,0.00,21.5,21.5,00.0,30.5,23.1,07.4,0000.0,0006.44,0001.29,0000.49
2022-04-07 13:43:00,,0833.8,5.01,0.00,21.5,21.2,00.0,30.5,23.0,07.5,0000.0,0006.37,0001.26,0000.49
2022-04-07 13:44:00,,0833.8,4.99,0.00,21.4,20.9,00.0,30.5,22.9,07.4,0000.0,0006.21,0001.18,0000.49
2022-04-07 13:45:00,,0833.9,5.01,0.00,21.3,20.7,00.0,30.5,22.8,07.4,0000.0,0006.28,0001.18,0000.50
2022-04-07 13:46:00,,0834.0,5.00,0.00,21.3,20.5,00.0,30.4,22.7,07.5,0000.0,0006.64,0001.25,0000.51
2022-04-07 13:47:00,,0834.0,5.00,0.00,21.2,20.4,00.0,30.4,22.6,07.6,0000.0,0006.01,0001.34,0000.52
2022-04-07 13:48:00,,0834.0,5.00,0.00,21.1,20.3,00.0,30.4,22.6,07.6,0000.0,0005.78,0001.37,0000.52
2022-04-07 13:49:00,,0834.0,5.00,0.00,21.1,20.2,00.0,30.3,22.5,07.7,0000.0,0005.55,0001.42,0000.55
2022-04-07 13:50:00,,0834.0,5.00,0.00,21.1,21.0,00.0,30.3,22.8,07.7,0000.0,0005.79,0001.41,0000.55
2022-04-07 13:51:00,,0834.0,5.00,0.00,21.3,22.5,00.0,30.4,23.2,07.6,0000.0,0005.83,0001.40,0000.56
2022-04-07 13:52:00,,0834.0,5.01,0.00,21.5,22.9,00.0,30.4,23.4,07.7,0000.0,0005.97,0001.45,0000.57
2022-04-07 13:53:00,,0834.0,4.99,0.00,21.5,22.4,00.0,30.4,23.3,07.6,0000.0,0006.16,0001.54,0000.59
2022-04-07 13:54:00,,0834.0,5.00,0.00,21.5,21.9,00.0,30.4,23.2,07.8,0000.0,0006.18,0001.55,0000.60
2022-04-07 13:55:00,,0834.0,4.99,0.00,21.4,21.6,00.0,30.4,23.0,07.7,0000.0,0006.94,0001.55,0000.60
2022-04-07 13:56:00,,0834.0,4.99,0.00,21.4,21.3,00.0,30.4,22.9,07.8,0000.0,0007.01,0001.54,0000.60
2022-04-07 13:57:00,,0834.0,5.01,0.00,21.3,21.0,00.0,30.4,22.8,07.8,0000.0,0006.13,0001.51,0000.62
2022-04-07 13:58:00,,0834.0,5.00,0.00,21.2,20.8,00.0,30.4,22.7,07.8,0000.0,0005.54,0001.42,0000.62
2022-04-07 13:59:00,,0834.0,4.98,0.00,21.2,20.6,00.0,30.3,22.6,08.0,0000.0,0005.31,0001.44,0000.64
